| time (UTC) | temp F | wind direction | speed MPH | gust MPH | rain 1hr in | rain 24hr in | rain mn in | humidity % | barometer mb |
| 20260505031606 | 73 | 0 | 0.0 | 4.0 | 0.00 | 0.00 | 0.00 | 82 | 1012.1 |
| 20260505030122 | 73 | 250 | 0.0 | 3.0 | 0.00 | 0.00 | 0.00 | 81 | 1012.1 |
| 20260505024610 | 73 | 0 | 1.0 | 4.0 | 0.00 | 0.00 | 0.00 | 80 | 1012.1 |
| 20260505023054 | 73 | 209 | 0.0 | 4.0 | 0.00 | 0.00 | 0.00 | 81 | 1012.1 |
| 20260505021554 | 73 | 0 | 0.0 | 5.0 | 0.00 | 0.00 | 0.00 | 80 | 1012.0 |
| 20260505020104 | 73 | 192 | 1.0 | 5.0 | 0.00 | 0.00 | 0.00 | 80 | 1011.8 |
| 20260505014551 | 73 | 221 | 0.0 | 7.0 | 0.00 | 0.00 | 0.00 | 80 | 1011.8 |
| 20260505013050 | 73 | 0 | 1.0 | 7.0 | 0.00 | 0.00 | 0.00 | 79 | 1011.9 |
| 20260505011556 | 73 | 207 | 0.0 | 3.0 | 0.00 | 0.00 | 0.00 | 79 | 1011.9 |
| 20260505010110 | 73 | 0 | 0.0 | 4.0 | 0.00 | 0.00 | 0.00 | 78 | 1011.7 |
| 20260505004620 | 74 | 194 | 0.0 | 6.0 | 0.00 | 0.00 | 0.00 | 77 | 1011.7 |
| 20260505003100 | 74 | 0 | 0.0 | 3.0 | 0.00 | 0.00 | 0.00 | 76 | 1011.7 |
| 20260505001552 | 75 | 0 | 1.0 | 3.0 | 0.00 | 0.00 | 0.00 | 75 | 1011.8 |
| 20260505000104 | 75 | 0 | 1.0 | 6.0 | 0.00 | 0.00 | 0.00 | 75 | 1011.8 |
| 20260504234555 | 75 | 276 | 1.0 | 7.0 | 0.00 | 0.00 | 0.00 | 75 | 1012.0 |
| 20260504233051 | 76 | 181 | 0.0 | 5.0 | 0.00 | 0.00 | 0.00 | 74 | 1012.1 |
| 20260504231620 | 76 | 0 | 0.0 | 8.0 | 0.00 | 0.00 | 0.00 | 73 | 1012.2 |
| 20260504230053 | 76 | 184 | 0.0 | 10.0 | 0.00 | 0.00 | 0.00 | 72 | 1012.4 |
| 20260504224550 | 77 | 219 | 0.0 | 8.0 | 0.00 | 0.00 | 0.00 | 72 | 1012.4 |
| 20260504223054 | 77 | 186 | 1.0 | 5.0 | 0.00 | 0.00 | 0.00 | 71 | 1012.8 |
| 20260504221631 | 77 | 202 | 1.0 | 5.0 | 0.00 | 0.00 | 0.00 | 70 | 1012.7 |
| 20260504220054 | 78 | 209 | 1.0 | 9.0 | 0.00 | 0.00 | 0.00 | 68 | 1012.7 |
| 20260504214551 | 79 | 180 | 1.0 | 5.0 | 0.00 | 0.00 | 0.00 | 68 | 1013.0 |
| 20260504213059 | 79 | 0 | 1.0 | 6.0 | 0.00 | 0.00 | 0.00 | 66 | 1013.2 |
| 20260504211555 | 81 | 196 | 1.0 | 5.0 | 0.00 | 0.00 | 0.00 | 65 | 1013.3 |
| 20260504210054 | 81 | 0 | 1.0 | 13.0 | 0.00 | 0.00 | 0.00 | 64 | 1013.7 |
| 20260504204555 | 80 | 226 | 1.0 | 6.0 | 0.00 | 0.00 | 0.00 | 66 | 1013.5 |
| 20260504203053 | 80 | 88 | 1.0 | 9.0 | 0.00 | 0.00 | 0.00 | 66 | 1013.8 |
| 20260504201555 | 80 | 0 | 1.0 | 9.0 | 0.00 | 0.00 | 0.00 | 65 | 1014.0 |
| 20260504200055 | 81 | 173 | 0.0 | 7.0 | 0.00 | 0.00 | 0.00 | 65 | 1014.1 |
| 20260504194602 | 81 | 303 | 1.0 | 7.0 | 0.00 | 0.00 | 0.00 | 65 | 1014.4 |
| 20260504193053 | 82 | 0 | 0.0 | 5.0 | 0.00 | 0.00 | 0.00 | 65 | 1014.7 |
| 20260504191618 | 81 | 177 | 1.0 | 6.0 | 0.00 | 0.00 | 0.00 | 64 | 1014.7 |
| 20260504190053 | 81 | 186 | 0.0 | 7.0 | 0.00 | 0.00 | 0.00 | 66 | 1014.8 |
| 20260504184605 | 81 | 184 | 1.0 | 6.0 | 0.00 | 0.00 | 0.00 | 65 | 1014.9 |
| 20260504183054 | 80 | 0 | 1.0 | 7.0 | 0.00 | 0.00 | 0.00 | 66 | 1014.9 |
| 20260504181556 | 80 | 0 | 0.0 | 9.0 | 0.00 | 0.00 | 0.00 | 67 | 1015.1 |
| 20260504180054 | 79 | 248 | 1.0 | 14.0 | 0.00 | 0.00 | 0.00 | 65 | 1015.3 |
| 20260504174552 | 79 | 273 | 0.0 | 6.0 | 0.00 | 0.00 | 0.00 | 65 | 1015.4 |
| 20260504173054 | 79 | 0 | 1.0 | 8.0 | 0.00 | 0.00 | 0.00 | 65 | 1015.7 |
| 20260504171553 | 78 | 0 | 2.0 | 10.0 | 0.00 | 0.00 | 0.00 | 69 | 1016.1 |
| 20260504140105 | 73 | 253 | 1.0 | 7.0 | 0.00 | 0.00 | 0.00 | 68 | 1017.0 |
| 20260504081552 | 64 | 0 | 0.0 | 0.0 | 0.00 | 0.00 | 0.00 | 75 | 1017.3 |
| 20260504060104 | 61 | 0 | 0.0 | 0.0 | 0.00 | 0.00 | 0.00 | 80 | 1018.7 |
| 20260504044556 | 61 | 0 | 0.0 | 0.0 | 0.00 | 0.00 | 0.00 | 81 | 1019.3 |
| 20260504043050 | 61 | 0 | 0.0 | 0.0 | 0.00 | 0.00 | 0.00 | 80 | 1019.1 |
| 20260504041552 | 62 | 0 | 0.0 | 0.0 | 0.00 | 0.00 | 0.00 | 78 | 1019.3 |
| 20260504040055 | 63 | 0 | 0.0 | 0.0 | 0.00 | 0.00 | 0.00 | 76 | 1019.4 |
| 20260504034606 | 64 | 0 | 0.0 | 0.0 | 0.00 | 0.00 | 0.00 | 74 | 1019.3 |
| 20260504033059 | 64 | 0 | 0.0 | 0.0 | 0.00 | 0.00 | 0.00 | 72 | 1019.3 |